Regional Weather Roundup
Issued by NWS

Home | Current Version | Previous Version | Graphics & Text | Print | Product List | Glossary On
Versions: 1 2 3 4 5 6 7 8 9 10 11 12 13 14 15 16 17 18 19 20 21 22 23 24 25 26 27 28 29 30 31 32 33 34 35 36 37 38 39 40 41 42 43 44 45 46 47 48 49 50
000
ASUS45 KTFX 300904
RWRMT
MONTANA HOURLY WEATHER ROUNDUP
NATIONAL WEATHER SERVICE GREAT FALLS MT
304 AM MDT WED JUL 30 2014

NOTE: "FAIR" INDICATES FEW OR NO CLOUDS BELOW 12000 FEET WITH NO
SIGNIFICANT WEATHER AND/OR OBSTRUCTIONS TO VISIBILITY.

* THESE STATIONS ARE NOT UNDER NWS QUALITY CONTROL. THEY DO NOT
   REPORT WEATHER SUCH AS PRECIPITATION OR FOG.

MTZ001>007-043-301000-
WEST OF THE DIVIDE
CITY           SKY/WX    TMP DP  RH WIND       PRES   REMARKS
KALISPELL      CLEAR     57  48  72 W3        30.09S
MISSOULA       CLEAR     66  43  43 CALM      30.13R
BUTTE          MOCLDY    54  43  67 SE6       30.30S
MULLAN PASS    PTCLDY    72  36  27 SE5       30.29S
* LINCOLN      N/A       51  46  83 N/A        N/A
* LOOKOUT PASS N/A       65  43  45 N/A        N/A
* POLSON       N/A       69  42  38 N/A        N/A
* RONAN APT    CLEAR     57  50  78 N/A        N/A
* SEELEY LAKE  N/A       52  44  74 E1         N/A
* THOMP F APT  PTCLDY    58  43  58 N4G11      N/A
* YAAK HILL    N/A       62  44  52 E2         N/A
$$

MTZ008-052>055-301000-
SOUTHWEST MONTANA
CITY           SKY/WX    TMP DP  RH WIND       PRES   REMARKS
BOZEMAN        PTCLDY    55  46  72 CALM      30.23S
DILLON         MOCLDY    61  45  56 S8        30.26S
W YELLOWSTONE  FOG       46  46 100 CALM      30.40R VSB M1/4
* THREE FORKS  PTCLDY    57  57 100 N/A        N/A
* BOULDER HILL N/A       61  39  44 S6         N/A
* MONIDA PASS  N/A       49  48  96 W5         N/A
* RAYNOLDS PAS N/A       48  29  48 SE4        N/A
* WHITEHALL    N/A       59  46  62 NW5        N/A
* WISE RIVER   N/A       55  40  57 SW3        N/A
$$

MTZ009>010-012-014-046-048-049-054-301000-
EAST SLOPES AND CENTRAL MONTANA
CITY           SKY/WX    TMP DP  RH WIND       PRES   REMARKS
CUT BANK       CLEAR     57  45  64 N5        30.17S
GREAT FALLS    PTCLDY    64  45  50 S6        30.16S
HELENA         MOCLDY    63  46  54 W5        30.20S
MALMSTROM AFB  PTCLDY    61  45  56 S5        30.17R
* CONRAD       CLEAR     52  48  86 N/A        N/A
* DEARBORN     N/A       59  46  62 S3         N/A
* EAST GLACIER N/A       56  46  69 NW9        N/A
* MONARCH      N/A       58  40  51 S10        N/A
* ROGERS PASS  N/A       60  42  52 N1         N/A
* SAINT MARY   N/A       48  44  86 SE3        N/A
* SWEET GRASS  N/A       68  40  36 S14        N/A
$$

MTZ011-013-016-021-035-040-045-047-050-051-301000-
NORTH CENTRAL MONTANA
CITY           SKY/WX    TMP DP  RH WIND       PRES   REMARKS
HAVRE          CLEAR     73  43  34 VRB6      30.12R
LEWISTOWN      CLEAR     64  43  47 E9        30.23S
* CHESTER      N/A       69  41  36 SE7G12     N/A
* DENTON       N/A       64  42  45 S11        N/A
* GEYSER       N/A       61  43  52 NE6        N/A
* JUDITH GAP   N/A       58  42  55 N/A        N/A
* LOMA         N/A       71  42  35 NE12G17    N/A
$$

MTZ017>020-022>027-061-062-301000-
NORTHEAST MONTANA
CITY           SKY/WX    TMP DP  RH WIND       PRES   REMARKS
GLASGOW        CLEAR     63  54  73 E10       30.17F
GLENDIVE       CLEAR     59  48  67 NW7       30.20S
JORDAN         CLEAR     55  43  64 CALM      30.19S
SIDNEY         CLEAR     57  54  90 NW5       30.18F
WOLF POINT     CLEAR     57  54  90 NE6       30.18S
* BEAVER HILL  N/A       60  54  81 E2         N/A
* CIRCLE       N/A       59  50  72 N/A        N/A
* LINDSAY DVD  N/A       60  49  67 NE6        N/A
$$

MTZ028>042-056>058-301000-
SOUTHCENTRAL AND SOUTHEAST MONTANA
CITY           SKY/WX    TMP DP  RH WIND       PRES   REMARKS
BAKER          CLEAR     55  52  90 CALM      30.19F
BILLINGS       PTCLDY    68  54  61 SW12      30.22S
LIVINGSTON     PTCLDY    57  48  72 W6        30.26R
MILES CITY     CLEAR     63  46  54 CALM      30.18S
* LAUREL APT   PTCLDY    63  52  68 N/A        N/A
* ROUNDUP APT  CLEAR     63  39  41 N/A        N/A
* ALZADA       N/A       60  54  81 S1         N/A
* HYSHAM       N/A       68  39  35 E4         N/A
* LAME DEER    N/A       66  39  37 E6         N/A
* REED POINT   N/A       59  54  84 N/A        N/A
* ROSCOE HILL  N/A       65  42  43 S5         N/A
$$

REGIONAL REPORTS...DAKOTAS
CITY           SKY/WX    TMP DP  RH WIND       PRES   REMARKS
WILLISTON      CLEAR     57  55  93 NE3       30.18S
DICKINSON      CLEAR     54  54 100 N5        30.17S
CROSBY         N/A       50  50 100 CALM      30.19S
TIOGA          FOG       48  48 100 CALM      30.21S VSB M1/4
WATFORD CITY   CLEAR     54  54 100 CALM      30.16S
BISMARCK       CLEAR     57  30  36 CALM      30.17S
GRAND FORKS    CLEAR     54  54 100 W5        30.11S
FARGO          CLEAR     55  52  90 CALM      30.11S
BUFFALO SD     CLEAR     61  48  62 W5        30.11S
RAPID CITY     PTCLDY    54  48  80 CALM      30.20S
$$

REGIONAL REPORTS...WYOMING/IDAHO/WASHINGTON
CITY           SKY/WX    TMP DP  RH WIND       PRES   REMARKS
GILLETTE       PTCLDY    59  54  84 SW7       30.26S
SHERIDAN       PTCLDY    52  45  77 CALM      30.24S
YELLOWSTONE LA MOCLDY    43  43 100 CALM      30.47S
SALMON         MOCLDY    59  52  78 SE3       30.21S
MULLAN PASS    PTCLDY    72  36  27 SE5       30.29S
SAND POINT     PTCLDY    55  48  77 NW3       30.03S
SPOKANE        MOCLDY    79  32  18 S7        30.01F

$$




USA.gov is the U.S. government's official web portal to all federal, state and local government web resources and services.